Regional Weather Roundup
Issued by NWS

Home | Current Version | Previous Version | Graphics & Text | Print | Product List | Glossary On
Versions: 1 2 3 4 5 6 7 8 9 10 11 12 13 14 15 16 17 18 19 20 21 22 23 24 25 26 27 28 29 30 31 32 33 34 35 36 37 38 39 40 41 42 43 44 45 46 47 48 49 50
000
ASUS43 KMPX 300310
RWRMN
WEATHER ROUNDUP FOR MINNESOTA
NATIONAL WEATHER SERVICE TWIN CITIES/CHANHASSEN MN
1000 PM CDT FRI MAY 29 2015


NOTE: "FAIR" INDICATES FEW OR NO CLOUDS BELOW 12,000 FEET WITH NO
SIGNIFICANT WEATHER AND/OR OBSTRUCTIONS TO VISIBILITY. N/A MEANS
CURRENT SKY AND/OR WEATHER CONDITIONS ARE NOT AVAILABLE.

MNZ060>063-068>070-300400-
   Twin Cities Metro

CITY           SKY/WX    TMP DP  RH WIND       PRES   REMARKS
TWIN CITIES    LGT RAIN  54  52  93 N15       30.03R
ST PAUL        LGT RAIN  55  53  93 N14G23    30.02R
CRYSTAL        LGT RAIN  55  50  83 N13       30.04R
BLAINE         LGT RAIN  55  54  94 N13       30.04R
LAKEVILLE      RAIN      54  54 100 N15G22    30.01R
EDEN PRAIRIE   CLOUDY    54  51  90 N14G21    30.02R
SOUTH ST PAUL  CLOUDY    56  53  92 N12G23    30.01R
LAKE ELMO      DRIZZLE   54  52  94 N13G20    30.03R
$$
MNZ001>005-007-008-013>017-022>024-027-028-300400-
   Northwest Minnesota

CITY           SKY/WX    TMP DP  RH WIND       PRES   REMARKS
BEMIDJI        MOCLDY    47  37  67 N9        30.16R
HALLOCK        CLEAR     43  30  61 N14       30.30R
ROSEAU         CLEAR     43  34  70 N15       30.25R
WARROAD        CLEAR     43  34  70 NW10G16   30.24R
THIEF RVR FALL CLEAR     45  30  57 N16G22    30.25R
CROOKSTON      CLEAR     46  34  61 N16       30.26R
FOSSTON        PTCLDY    43  34  70 N15       30.21R
DETROIT LAKES  PTCLDY    46  39  76 N12G23    30.19R
MOORHEAD       MOCLDY    46  37  71 N18       30.22R
PARK RAPIDS    MOCLDY    52  38  58 N13       30.14R
MAHNOMEN       FAIR      46  35  67 N14       30.20R
$$
MNZ006-009>011-018-025>026-300400-
   North Central Minnesota

CITY           SKY/WX    TMP DP  RH WIND       PRES   REMARKS
BAUDETTE       PTCLDY    47  32  56 N14       30.19R
FLAG ISLAND    CLEAR     46  36  66 N23G29    30.22R
INTL FALLS     MOCLDY    45  34  65 NW8       30.15R
WASKISH        PTCLDY    46  36  66 N8        30.18R
BIG FORK       CLOUDY    46  37  71 N6        30.15R
LONGVILLE      CLOUDY    50  39  66 N7        30.13R
GRAND RAPIDS   CLOUDY    48  36  61 N14G21    30.13R
CRANE LAKE     CLOUDY    48  39  71 N7        30.13
COOK           CLOUDY    48  41  76 N5        30.12R
WALKER         FAIR      48  39  69 N8        30.15R
$$
MNZ012-019>021-037-300400-
   Northeast Minnesota

CITY           SKY/WX    TMP DP  RH WIND       PRES   REMARKS
DULUTH         CLOUDY    51  41  68 N10G20    30.06R
HIBBING        CLOUDY    49  39  68 N13       30.11R
EVELETH        CLOUDY    50  41  71 N7        30.11R
DULUTH HARBOR  CLOUDY    54  46  76 N12       30.08R
TWO HARBORS    CLOUDY    54  45  71 N3        30.05R
SILVER BAY     CLOUDY    52  45  76 NW3       30.03R
GRAND MARAIS     N/A     55  44  66 N21G30    29.99S
G MARAIS ARPRT CLOUDY    48  39  71 NW10G23   30.03R
$$
MNZ029>031-032-039>041-046>048-054>057-064-300400-
   West Central Minnesota

CITY           SKY/WX    TMP DP  RH WIND       PRES   REMARKS
FERGUS FALLS   MOCLDY    52  39  62 N12G18    30.18R
WHEATON        CLOUDY    46  37  71 NW16G23   30.20R
MORRIS         CLOUDY    52  45  76 N12G18    30.14R
ALEXANDRIA     CLOUDY    51  43  74 N8        30.13R
ELBOW LAKE     FAIR      50  43  77 N16       30.15R
WADENA         MOCLDY    48  43  81 NW8       30.13R
GLENWOOD       CLOUDY    52  45  76 N9        30.12R
APPLETON       CLOUDY    52  45  76 N9        30.15R
BENSON         CLOUDY    52  43  71 N7        30.13R
ORTONVILLE     MOCLDY    50  41  71 N14       30.16R
MADISON        MOCLDY    50  45  81 N12       30.15R
WILLMAR        FAIR      54  46  76 N10       30.12R
$$
MNZ033>034-036-042>043-049>051-058-059-300400-
   Central Minnesota

CITY           SKY/WX    TMP DP  RH WIND       PRES   REMARKS
ST CLOUD       CLOUDY    52  45  77 N8        30.08R
SAUK CENTRE    FAIR      50  44  78 N7        30.11R
PAYNESVILLE    MOCLDY    48  43  84 NW7       30.11R
AITKIN         CLOUDY    52  43  71 NW8       30.08R
PINE RIVER     CLOUDY    52  41  66 N13G18    30.15R
BRAINERD       CLOUDY    52  41  66 N9        30.11R
STAPLES        CLOUDY    50  39  66 N9        30.13R
LONG PRAIRIE   FAIR      50  43  76 NW9       30.12R
LITTLE FALLS   CLOUDY    50  43  76 NW5       30.10R
LITCHFIELD     MOCLDY    54  48  82 N13       30.09R
BUFFALO        CLOUDY    53  48  81 N10G16    30.08R
MAPLE LAKE     CLOUDY    54  49  86 NW9       30.08R
$$
MNZ037-044-045-052-053-300400-
   East Central Minnesota

CITY           SKY/WX    TMP DP  RH WIND       PRES   REMARKS
PRINCETON      CLOUDY    54  48  82 N8        30.07R
MORA           CLOUDY    50  45  81 N5        30.08R
CAMBRIDGE      CLOUDY    55  46  71 NW5       30.05R
RUSH CITY      CLOUDY    54  49  86 N8        30.06R
MOOSE LAKE     CLOUDY    52  43  71 N12G18    30.06R
HINCKLEY       CLOUDY    54  48  82 N6        30.06R
CLOQUET        CLOUDY    52  39  62 N8G24     30.08R
MCGREGOR       CLOUDY    52  43  71 N14G20    30.09R
$$
MNZ071>073-080-081-089-090-097-098-300400-
   Southwest Minnesota

CITY           SKY/WX    TMP DP  RH WIND       PRES   REMARKS
MONTEVIDEO     CLOUDY    50  46  87 N12G17    30.14R
GRANITE FALLS  CLOUDY    51  45  82 NW10G17   30.14R
CANBY          MOCLDY    49  43  81 NW12      30.17R
MARSHALL       MOCLDY    48  41  76 N15       30.12R
REDWOOD FALLS  CLOUDY    54  48  80 N13G21    30.09R
OLIVIA         CLOUDY    52  46  82 N12       30.09R
PIPESTONE      CLOUDY    48  43  81 N14G20    30.12R
WINDOM         CLOUDY    50  48  93 NW21G29   30.08R
WORTHINGTON    CLOUDY    48  43  81 N22       30.09R
JACKSON        CLOUDY    52  50  93 N17G28    30.07R
TRACY          CLOUDY    50  47  90 NW17G25   30.11R
SLAYTON        CLOUDY    47  46  93 NW18G25   30.11R
$$
MNZ065>067-074>077-082>085-091>093-300400-
   South Central Minnesota

CITY           SKY/WX    TMP DP  RH WIND       PRES   REMARKS
MANKATO        CLOUDY    55  52  88 N20G29    30.03R
NEW ULM        LGT RAIN  52  52 100 N15G23    30.07R
ST JAMES       CLOUDY    55  54  94 NW17G24   30.06R
FAIRMONT       CLOUDY    54  48  82 N22G28    30.02R
GLENCOE        CLOUDY    54  51  90 N15G21    30.06R
FARIBAULT      DRIZZLE   55  55 100 N17       30.00R
OWATONNA       DRIZZLE   59  55  88 N21G28    29.99R
WASECA         LGT RAIN  55  54  94 N21G28    30.01R
ALBERT LEA     HVY RAIN  63  63 100 N12G17    29.96R
$$
MNZ078>079-086>088-094>096-300400-
   Southeast Minnesota

CITY           SKY/WX    TMP DP  RH WIND       PRES   REMARKS
ROCHESTER      LGT RAIN  64  63  96 VRB5      29.94R
RED WING       DRIZZLE   63  59  88 N10G16    29.95R
STANTON        LGT RAIN  57  54  91 N16       29.98R
DODGE CENTER   LGT RAIN  63  63 100 N14       29.95R
WINONA         CLOUDY    64  63  94 CALM      29.91S
AUSTIN         CLOUDY    63  61  94 N6        29.93R
PRESTON        CLOUDY    63  61  95 N5        29.93R
$$
ABBREVIATIONS USED IN REMARKS
   TC - TEMPERATURES IN CELSIUS
  WCI - WIND CHILL INDEX
   HX - HEAT INDEX
  VSB - VISIBILITY
$$



USA.gov is the U.S. government's official web portal to all federal, state and local government web resources and services.